University AP, Davis, CA, CA

6:25 PM PST on December 15, 2019 (GMT -0800)
University AP, Davis, CA

Weather History for KEDU - October, 2019

Change the Weather History Date:

Saturday, October 5, 2019

  Actual Average (WUND) Record (WUND)
Temperature  
Mean Temperature 63 °F -  
Max Temperature 80 °F - - (-1)
Min Temperature 46 °F - - (-1)
Degree Days  
Heating Degree Days 2    
Growing Degree Days 13 (Base 50)    
Moisture  
Dew Point 33 °F    
Average Humidity 37    
Maximum Humidity 62    
Minimum Humidity 14    
Precipitation  
Precipitation 0.00 in - - ()
Sea Level Pressure  
Sea Level Pressure 30.08 in    
Wind  
Wind Speed 4 mph ()    
Max Wind Speed 15 mph    
Max Gust Speed 21 mph    
Visibility 10.0 miles    
Events      
Averages and records for this station are not official NWS values.
T = Trace of Precipitation, MM = Missing Value Source: Averaged Metar Reports

Daily Weather History Graph

Daily Weather History Graph

Search for Another Location

Airport or City:

Astronomy

Oct. 05, 2019 Rise Set
Actual Time 7:06 AM PDT 6:43 PM PDT
Civil Twilight 6:40 AM PDT 7:10 PM PDT
Nautical Twilight 6:09 AM PDT 7:41 PM PDT
Astronomical Twilight 5:38 AM PDT 8:11 PM PDT
Moon 2:32 PM PDT (10/5) No Moon Set
Length of Visible Light 12h 30m
Length of Day
11h 37m
Waxing Crescent, 51% of the Moon is Illuminated
Oct 5
Waxing Crescent
Oct 13
Full
Oct 21
Last Quarter
Oct 27
New
Nov 4
First Quarter

Hourly Weather History & Observations

Time (PDT) Temp. Dew Point Humidity Pressure Visibility Wind Dir Wind Speed Gust Speed Precip Events Conditions
12:00 AM 53.6 °F 30.2 °F 41% 30.11 in 10.0 mi WNW 3.5 mph - N/A   Clear
12:15 AM 53.6 °F 30.2 °F 41% 30.11 in 10.0 mi WNW 4.6 mph - N/A   Clear
12:35 AM 53.6 °F 32.0 °F 44% 30.11 in 10.0 mi West 3.5 mph - N/A   Clear
1:00 AM 53.6 °F 28.4 °F 38% 30.11 in 10.0 mi West 3.5 mph - N/A   Clear
1:15 AM 55.4 °F 28.4 °F 36% 30.11 in 10.0 mi West 3.5 mph - N/A   Clear
1:40 AM 51.8 °F 30.2 °F 44% 30.12 in 10.0 mi Calm Calm - N/A   Clear
1:55 AM 50.0 °F 28.4 °F 43% 30.12 in 10.0 mi Calm Calm - N/A   Clear
2:20 AM 50.0 °F 32.0 °F 50% 30.12 in 9.0 mi Calm Calm - N/A   Clear
2:35 AM 46.4 °F 33.8 °F 62% 30.12 in 10.0 mi Calm Calm - N/A   Clear
3:00 AM 50.0 °F 32.0 °F 50% 30.12 in 10.0 mi Calm Calm - N/A   Clear
3:15 AM 46.4 °F 32.0 °F 57% 30.11 in 10.0 mi Calm Calm - N/A   Clear
3:40 AM 46.4 °F 32.0 °F 57% 30.11 in 10.0 mi Calm Calm - N/A   Clear
4:00 AM 48.2 °F 32.0 °F 54% 30.10 in 10.0 mi West 3.5 mph - N/A   Clear
4:15 AM 50.0 °F 32.0 °F 50% 30.10 in 10.0 mi WNW 4.6 mph - N/A   Clear
4:40 AM 50.0 °F 32.0 °F 50% 30.10 in 10.0 mi WNW 4.6 mph - N/A   Clear
4:55 AM 50.0 °F 32.0 °F 50% 30.10 in 10.0 mi NW 3.5 mph - N/A   Clear
5:20 AM 50.0 °F 32.0 °F 50% 30.11 in 10.0 mi North 3.5 mph - N/A   Clear
5:35 AM 53.6 °F 32.0 °F 44% 30.11 in 10.0 mi NNW 4.6 mph - N/A   Clear
6:00 AM 50.0 °F 32.0 °F 50% 30.11 in 10.0 mi North 3.5 mph - N/A   Clear
6:15 AM 48.2 °F 32.0 °F 54% 30.12 in 10.0 mi NE 3.5 mph - N/A   Clear
6:40 AM 46.4 °F 32.0 °F 57% 30.12 in 10.0 mi Calm Calm - N/A   Clear
6:55 AM 46.4 °F 33.8 °F 62% 30.12 in 10.0 mi Calm Calm - N/A   Clear
7:20 AM 48.2 °F 33.8 °F 58% 30.13 in 10.0 mi Calm Calm - N/A   Clear
7:35 AM 46.4 °F 32.0 °F 57% 30.13 in 10.0 mi Calm Calm - N/A   Clear
8:00 AM 48.2 °F 35.6 °F 62% 30.13 in 10.0 mi North 3.5 mph - N/A   Clear
8:20 AM 55.4 °F 35.6 °F 47% 30.14 in 10.0 mi Calm Calm - N/A   Clear
8:35 AM 55.4 °F 33.8 °F 44% 30.14 in 10.0 mi NNW 5.8 mph - N/A   Clear
9:00 AM 59.0 °F 33.8 °F 39% 30.14 in 10.0 mi North 6.9 mph - N/A   Clear
9:15 AM 60.8 °F 35.6 °F 39% 30.14 in 10.0 mi NNW 6.9 mph - N/A   Clear
9:40 AM 64.4 °F 33.8 °F 32% 30.15 in 10.0 mi North 10.4 mph - N/A   Clear
9:55 AM 66.2 °F 33.8 °F 30% 30.15 in 10.0 mi North 12.7 mph 16.1 mph N/A   Clear
10:20 AM 68.0 °F 32.0 °F 26% 30.15 in 10.0 mi North 13.8 mph 20.7 mph N/A   Clear
10:35 AM 69.8 °F 33.8 °F 27% 30.15 in 10.0 mi North 13.8 mph 20.7 mph N/A   Clear
11:00 AM 71.6 °F 32.0 °F 23% 30.14 in 10.0 mi NNW 11.5 mph 19.6 mph N/A   Clear
11:15 AM 71.6 °F 32.0 °F 23% 30.14 in 10.0 mi North 15.0 mph - N/A   Clear
11:40 AM 71.6 °F 32.0 °F 23% 30.14 in 10.0 mi North 12.7 mph 17.3 mph N/A   Clear
11:55 AM 73.4 °F 32.0 °F 22% 30.14 in 10.0 mi North 12.7 mph 19.6 mph N/A   Clear
12:20 PM 73.4 °F 33.8 °F 23% 30.13 in 10.0 mi North 9.2 mph - N/A   Clear
12:40 PM 75.2 °F 35.6 °F 24% 30.12 in 10.0 mi North 11.5 mph - N/A   Clear
12:55 PM 73.4 °F 35.6 °F 25% 30.12 in 10.0 mi North 10.4 mph 16.1 mph N/A   Clear
1:20 PM 75.2 °F 37.4 °F 25% 30.10 in 10.0 mi NNE 8.1 mph - N/A   Clear
1:35 PM 77.0 °F 35.6 °F 22% 30.10 in 10.0 mi NNE 12.7 mph 17.3 mph N/A   Clear
2:00 PM 77.0 °F 35.6 °F 22% 30.09 in 10.0 mi NNW 8.1 mph - N/A   Clear
2:20 PM 77.0 °F 35.6 °F 22% 30.08 in 10.0 mi NNE 8.1 mph - N/A   Clear
2:35 PM 78.8 °F 33.8 °F 20% 30.07 in 10.0 mi North 8.1 mph - N/A   Clear
3:00 PM 80.6 °F 33.8 °F 18% 30.06 in 10.0 mi North 8.1 mph - N/A   Clear
3:20 PM 80.6 °F 35.6 °F 20% 30.05 in 10.0 mi North 9.2 mph - N/A   Clear
3:40 PM 80.6 °F 32.0 °F 17% 30.05 in 10.0 mi North 10.4 mph - N/A   Clear
4:00 PM 80.6 °F 32.0 °F 17% 30.04 in 10.0 mi NNE 12.7 mph 16.1 mph N/A   Clear
4:15 PM 80.6 °F 30.2 °F 16% 30.04 in 10.0 mi North 10.4 mph - N/A   Clear
4:40 PM 80.6 °F 28.4 °F 15% 30.03 in 10.0 mi NNE 10.4 mph - N/A   Clear
4:55 PM 80.6 °F 26.6 °F 14% 30.03 in 10.0 mi North 11.5 mph - N/A   Clear
5:20 PM 80.6 °F 28.4 °F 15% 30.03 in 10.0 mi NNE 11.5 mph - N/A   Clear
5:40 PM 80.6 °F 28.4 °F 15% 30.02 in 10.0 mi North 9.2 mph - N/A   Clear
5:55 PM 78.8 °F 30.2 °F 17% 30.02 in 10.0 mi North 9.2 mph - N/A   Clear
6:20 PM 77.0 °F 32.0 °F 19% 30.02 in 10.0 mi North 5.8 mph - N/A   Clear
6:35 PM 77.0 °F 32.0 °F 19% 30.02 in 10.0 mi North 4.6 mph - N/A   Clear
7:00 PM 73.4 °F 35.6 °F 25% 30.02 in 10.0 mi Calm Calm - N/A   Clear
7:15 PM 68.0 °F 37.4 °F 33% 30.02 in 10.0 mi Calm Calm - N/A   Clear
7:40 PM 66.2 °F 37.4 °F 35% 30.02 in 10.0 mi Calm Calm - N/A   Clear
8:00 PM 64.4 °F 37.4 °F 37% 30.02 in 10.0 mi Calm Calm - N/A   Clear
8:40 PM 66.2 °F 35.6 °F 32% 30.02 in 10.0 mi WNW 4.6 mph - N/A   Clear
8:55 PM 66.2 °F 35.6 °F 32% 30.02 in 10.0 mi WNW 4.6 mph - N/A   Clear
9:20 PM 60.8 °F 37.4 °F 42% 30.02 in 10.0 mi West 3.5 mph - N/A   Clear
9:35 PM 60.8 °F 35.6 °F 39% 30.02 in 10.0 mi Calm Calm - N/A   Clear
10:00 PM 57.2 °F 37.4 °F 48% 30.02 in 10.0 mi Calm Calm - N/A   Clear
10:15 PM 57.2 °F 37.4 °F 48% 30.02 in 10.0 mi WSW 3.5 mph - N/A   Clear
10:40 PM 55.4 °F 39.2 °F 54% 30.02 in 10.0 mi Calm Calm - N/A   Clear
11:00 PM 55.4 °F 37.4 °F 51% 30.02 in 10.0 mi Calm Calm - N/A   Clear
11:15 PM 55.4 °F 37.4 °F 51% 30.02 in 10.0 mi WSW 4.6 mph - N/A   Clear
11:40 PM 57.2 °F 35.6 °F 44% 30.02 in 10.0 mi Calm Calm - N/A   Clear
11:55 PM 57.2 °F 35.6 °F 44% 30.02 in 10.0 mi West 3.5 mph - N/A   Clear